This demonstration page uses our WeatherBlox Daily Observations layout. Learn more.

Left ArrowRight Arrow

Hourly Observations for April 24, 2022

Temp ( °F °C ) Dew Point ( °F °C ) Humidity (%) Winds ( mph kmh ) Pressure ( in mb ) Visibility ( mi km ) Precip ( " mm )
12:53 am 00:53 Clear 46 7.8 30 -1.1 54 54 WNW 29 46 29.72 1006 10 16 0.00 0.00
1:53 am 01:53 Clear 45 7.2 31 -0.6 58 58 WNW 28 44 29.72 1007 10 16 0.00 0.00
2:53 am 02:53 Clear 45 7.2 29 -1.7 54 54 WNW 25 41 29.74 1007 10 16 0.00 0.00
3:53 am 03:53 Clear 44 6.7 30 -1.1 58 58 WNW 24 39 29.76 1008 10 16 0.00 0.00
4:53 am 04:53 Clear 43 6.1 30 -1.1 60 60 WNW 23 37 29.78 1008 10 16 0.00 0.00
5:53 am 05:53 Clear 43 6.1 30 -1.1 60 60 WNW 17 28 29.78 1009 10 16 0.00 0.00
6:53 am 06:53 Sunny 42 5.6 31 -0.6 65 65 WNW 14 22 29.82 1010 10 16 0.00 0.00
7:53 am 07:53 Sunny 44 6.7 33 0.6 65 65 NW 21 33 29.85 1011 10 16 0.00 0.00
8:53 am 08:53 Sunny 46 7.8 31 -0.6 56 56 NW 24 39 29.88 1012 10 16 0.00 0.00
9:53 am 09:53 Mostly Cloudy 50 10 32 0 50 50 NW 24 39 29.92 1013 10 16 0.00 0.00
10:53 am 10:53 Cloudy 51 10.6 31 -0.6 46 46 NW 24 39 29.96 1015 10 16 0.00 0.00
11:53 am 11:53 Cloudy 52 11.1 32 0 47 47 WNW 25 41 29.98 1015 10 16 0.00 0.00
12:53 pm 12:53 Mostly Cloudy 53 11.7 31 -0.6 43 43 NW 32 52 29.98 1015 10 16 0.00 0.00
1:53 pm 13:53 Mostly Cloudy 56 13.3 29 -1.7 36 36 NW 28 44 29.98 1015 10 16 0.00 0.00
2:53 pm 14:53 Cloudy 54 12.2 30 -1.1 40 40 NW 24 39 30.00 1016 10 16 0.00 0.00
3:53 pm 15:53 Mostly Cloudy 55 12.8 28 -2.2 35 35 NNW 33 54 30.01 1016 10 16 0.00 0.00
4:53 pm 16:53 Mostly Cloudy 54 12.2 29 -1.7 38 38 NW 25 41 30.03 1017 10 16 0.00 0.00
5:53 pm 17:53 Mostly Cloudy 55 12.8 30 -1.1 38 38 NW 23 37 30.05 1018 10 16 0.00 0.00
6:53 pm 18:53 Sunny 50 10 30 -1.1 46 46 NW 28 44 30.09 1019 10 16 0.00 0.00
7:53 pm 19:53 Sunny 47 8.3 30 -1.1 52 52 NNW 23 37 30.12 1020 10 16 0.00 0.00
8:53 pm 20:53 Clear 44 6.7 30 -1.1 58 58 NNW 18 30 30.16 1021 10 16 0.00 0.00
9:53 pm 21:53 Clear 41 5 29 -1.7 62 62 NW 13 20 30.19 1022 10 16 0.00 0.00
10:53 pm 22:53 Clear 41 5 29 -1.7 62 62 NW 15 24 30.20 1023 10 16 0.00 0.00
11:53 pm 23:53 Partly Cloudy 40 4.4 30 -1.1 68 68 NNW 13 20 30.21 1023 10 16 0.00 0.00

Powered by AerisWeather